Date,Time,Wetness (Wet Dry or Ice),Wind Speed (m/s),Temperature (C),Humidity (%),Pressure (mb),Radiation (W/m^2)
2020-10-03,19:25:00,DRY,4.50,11.60,56.5,774.00,1.1
2020-10-03,19:30:00,DRY,5.83,11.63,60.0,774.00,1.2
2020-10-03,19:35:00,DRY,6.60,11.70,61.0,774.00,1.2
2020-10-03,19:40:00,DRY,7.10,11.73,61.7,774.00,2.1
2020-10-03,19:45:00,DRY,6.75,11.85,62.5,774.00,1.2
2020-10-03,19:50:00,DRY,5.83,11.83,62.0,774.00,2.3
2020-10-03,19:55:00,DRY,6.05,11.85,63.0,774.00,1.5
2020-10-03,20:00:00,DRY,6.27,11.73,62.3,774.00,1.0
2020-10-03,20:05:00,DRY,7.55,11.65,63.5,774.00,0.7
2020-10-03,20:10:00,DRY,7.33,11.67,63.3,774.00,1.3
2020-10-03,20:15:00,DRY,5.90,11.60,64.0,774.00,1.2
2020-10-03,20:20:00,DRY,7.70,11.47,64.7,774.00,1.3
2020-10-03,20:25:00,DRY,5.65,11.55,65.0,774.00,1.4
2020-10-03,20:30:00,DRY,6.40,11.77,64.3,774.00,1.4
2020-10-03,20:35:00,DRY,7.45,11.90,64.0,774.00,1.2
2020-10-03,20:40:00,DRY,5.27,11.90,63.3,774.00,1.1
2020-10-03,20:45:00,DRY,6.30,11.90,64.5,774.00,1.1
2020-10-03,20:50:00,DRY,6.73,11.93,65.7,774.00,1.3
2020-10-03,20:55:00,DRY,8.90,11.90,64.0,774.00,1.1
2020-10-03,21:00:00,DRY,5.70,11.93,64.0,774.00,1.3
2020-10-03,21:05:00,DRY,6.30,11.80,65.0,774.00,1.7
2020-10-03,21:10:00,DRY,7.43,11.67,64.7,774.00,1.5
2020-10-03,21:15:00,DRY,7.40,11.65,64.5,774.00,2.2
2020-10-03,21:20:00,DRY,7.70,11.73,64.0,774.00,1.2
2020-10-03,21:25:00,DRY,5.00,11.80,65.0,774.00,1.2
2020-10-03,21:30:00,DRY,5.67,11.80,64.3,774.00,1.4
2020-10-03,21:35:00,DRY,6.15,11.80,65.0,774.00,1.1
2020-10-03,21:40:00,DRY,6.40,11.83,65.0,774.00,1.2
2020-10-03,21:45:00,DRY,6.40,11.80,65.5,774.00,1.5
2020-10-03,21:50:00,DRY,7.93,11.93,66.0,774.00,1.1
2020-10-03,21:55:00,DRY,7.05,11.90,66.0,774.00,1.2
2020-10-03,22:00:00,DRY,7.43,11.93,66.0,774.00,1.3
2020-10-03,22:05:00,DRY,8.25,11.80,65.5,774.00,1.4
2020-10-03,22:10:00,DRY,7.00,11.73,67.0,774.00,1.2
2020-10-03,22:15:00,DRY,6.85,11.75,67.0,774.00,1.1
2020-10-03,22:20:00,DRY,6.83,11.80,67.0,774.00,1.1
2020-10-03,22:25:00,DRY,8.20,11.75,67.0,774.00,0.9
2020-10-03,22:30:00,DRY,7.37,11.67,67.3,774.00,1.3
2020-10-03,22:35:00,DRY,6.05,11.70,67.0,774.00,1.1
2020-10-03,22:40:00,DRY,7.73,11.77,67.0,774.00,1.1
2020-10-03,22:45:00,DRY,7.95,11.75,67.5,774.00,0.9
2020-10-03,22:50:00,DRY,7.70,11.70,67.0,774.00,1.8
2020-10-03,22:55:00,DRY,6.65,11.55,67.5,774.00,1.2
2020-10-03,23:00:00,DRY,6.23,11.50,68.7,774.00,1.1
2020-10-03,23:05:00,DRY,6.40,11.60,68.0,774.00,1.1
2020-10-03,23:10:00,DRY,6.03,11.53,68.3,774.00,1.1
2020-10-03,23:15:00,DRY,7.70,11.50,67.0,774.00,3.5
2020-10-03,23:20:00,DRY,5.90,11.43,68.0,774.00,1.4
2020-10-03,23:25:00,DRY,6.15,11.40,69.0,774.00,1.3
2020-10-03,23:30:00,DRY,6.27,11.37,68.7,774.00,1.1
2020-10-03,23:35:00,DRY,7.20,11.05,70.5,774.00,1.3
2020-10-03,23:40:00,DRY,6.07,10.63,73.7,774.00,1.4
2020-10-03,23:45:00,DRY,6.60,10.60,74.0,774.00,0.6
2020-10-03,23:50:00,DRY,6.67,10.77,73.7,774.00,1.3
2020-10-03,23:55:00,DRY,6.30,10.70,73.5,774.00,1.1
2020-10-04,00:00:00,DRY,7.00,10.57,73.7,774.00,1.1
2020-10-04,00:05:00,DRY,5.05,10.55,74.5,774.00,1.1
2020-10-04,00:10:00,DRY,6.17,10.70,73.0,774.00,1.2
2020-10-04,00:15:00,DRY,5.95,10.85,71.5,774.00,1.1
2020-10-04,00:20:00,DRY,6.10,10.80,72.0,774.00,1.1
2020-10-04,00:25:00,DRY,5.15,10.95,71.0,774.00,1.4
2020-10-04,00:30:00,DRY,5.90,11.05,70.0,774.00,1.2
2020-10-04,00:35:00,DRY,5.90,10.80,70.0,774.00,1.1
2020-10-04,00:40:00,DRY,5.97,10.87,70.3,774.00,1.5
2020-10-04,00:45:00,DRY,7.40,11.10,69.0,774.00,1.4
2020-10-04,00:50:00,DRY,7.27,11.33,68.7,774.00,1.9
2020-10-04,00:55:00,DRY,5.95,11.20,70.0,774.00,2.0
2020-10-04,01:00:00,DRY,6.17,11.00,70.7,774.00,1.4
2020-10-04,01:05:00,DRY,7.30,10.80,70.5,774.00,1.2
2020-10-04,01:10:00,DRY,6.93,10.77,71.3,774.00,1.1
2020-10-04,01:15:00,DRY,7.25,10.70,71.5,774.00,0.7
2020-10-04,01:20:00,DRY,5.50,10.63,71.0,774.00,1.1
2020-10-04,01:25:00,DRY,6.40,10.65,71.0,774.00,0.9
2020-10-04,01:30:00,DRY,7.20,10.63,71.7,774.00,1.2
2020-10-04,01:35:00,DRY,6.85,10.50,73.5,774.00,1.2
2020-10-04,01:40:00,DRY,6.53,10.63,69.3,774.00,1.0
2020-10-04,01:45:00,DRY,6.00,10.60,69.5,773.50,1.1
2020-10-04,01:50:00,DRY,7.93,10.87,66.3,773.00,1.1
2020-10-04,01:55:00,DRY,7.50,10.90,69.5,773.00,1.1
2020-10-04,02:00:00,DRY,7.67,11.00,67.7,773.00,1.2
2020-10-04,02:05:00,DRY,8.50,11.10,65.0,773.00,1.5
2020-10-04,02:10:00,DRY,6.67,11.03,61.7,773.00,1.2
2020-10-04,02:15:00,DRY,7.30,10.90,62.5,773.00,0.9
2020-10-04,02:20:00,DRY,7.27,11.20,62.0,773.00,1.1
2020-10-04,02:25:00,DRY,7.00,11.20,65.0,773.00,1.2
2020-10-04,02:30:00,DRY,7.30,11.27,62.3,773.33,1.4
2020-10-04,02:35:00,DRY,6.20,11.20,61.5,773.00,1.5
2020-10-04,02:40:00,DRY,7.60,11.30,59.0,773.33,1.3
2020-10-04,02:45:00,DRY,7.35,11.25,57.0,773.00,0.9
2020-10-04,02:50:00,DRY,5.33,11.20,55.3,773.00,1.1
2020-10-04,02:55:00,DRY,7.50,11.15,57.5,773.50,1.2
2020-10-04,03:00:00,DRY,5.60,11.03,55.0,773.00,0.9
2020-10-04,03:05:00,DRY,6.35,10.95,55.5,773.00,1.1
2020-10-04,03:10:00,DRY,4.60,10.77,58.0,773.00,0.9
2020-10-04,03:15:00,DRY,5.30,10.40,62.0,773.00,1.1
2020-10-04,03:20:00,DRY,6.90,10.33,60.3,773.00,1.1
2020-10-04,03:25:00,DRY,7.60,10.15,65.5,773.00,0.8
2020-10-04,03:30:00,DRY,6.83,10.17,70.0,773.00,0.8
2020-10-04,03:35:00,DRY,6.15,10.05,69.5,773.00,1.1
2020-10-04,03:40:00,DRY,7.57,10.23,67.3,773.00,1.0
2020-10-04,03:45:00,DRY,7.30,10.45,66.0,773.00,1.1
2020-10-04,03:50:00,DRY,7.60,10.30,67.7,773.00,1.1
2020-10-04,03:55:00,DRY,8.75,10.65,60.5,773.00,0.9
2020-10-04,04:00:00,DRY,7.93,10.63,63.0,773.00,1.2
2020-10-04,04:05:00,DRY,9.00,10.50,66.5,773.00,0.9
2020-10-04,04:10:00,DRY,7.53,10.60,66.0,773.00,0.9
2020-10-04,04:15:00,DRY,6.25,10.25,71.0,773.00,0.8
2020-10-04,04:20:00,DRY,7.90,10.20,69.7,773.00,1.2
2020-10-04,04:25:00,DRY,6.30,10.05,75.5,773.00,0.8
2020-10-04,04:30:00,DRY,6.65,10.00,70.5,773.00,1.3
2020-10-04,04:35:00,DRY,8.30,10.40,67.0,773.00,1.1
2020-10-04,04:40:00,DRY,7.97,10.37,66.3,773.00,0.9
2020-10-04,04:45:00,DRY,7.15,10.25,69.0,773.00,1.2
2020-10-04,04:50:00,DRY,6.27,10.37,67.0,773.00,1.0
2020-10-04,04:55:00,DRY,7.65,10.50,64.5,773.00,0.9
2020-10-04,05:00:00,DRY,7.00,11.03,59.3,773.00,1.0
2020-10-04,05:05:00,DRY,7.60,10.90,59.5,773.00,0.8
2020-10-04,05:10:00,DRY,5.60,11.30,54.3,773.00,1.0
2020-10-04,05:15:00,DRY,7.35,11.50,50.5,773.00,1.3
2020-10-04,05:20:00,DRY,8.13,11.43,52.7,773.00,1.2
2020-10-04,05:25:00,DRY,6.90,11.55,53.0,773.00,1.4
2020-10-04,05:30:00,DRY,6.87,11.37,52.7,773.00,1.2
2020-10-04,05:35:00,DRY,5.50,11.40,52.5,773.00,1.1
2020-10-04,05:40:00,DRY,6.63,11.57,51.7,773.00,1.2
2020-10-04,05:45:00,DRY,6.80,11.30,59.0,773.00,1.2
2020-10-04,05:50:00,DRY,6.53,11.27,55.7,773.00,0.8
2020-10-04,05:55:00,DRY,7.40,11.60,49.5,773.00,1.1
2020-10-04,06:00:00,DRY,7.87,11.80,47.3,773.00,1.1
2020-10-04,06:05:00,DRY,6.70,11.30,56.5,773.00,0.9
2020-10-04,06:10:00,DRY,8.50,11.10,57.3,773.00,2.0
2020-10-04,06:15:00,DRY,8.50,11.05,58.0,773.00,1.6
2020-10-04,06:20:00,DRY,7.03,11.10,57.0,773.00,1.3
2020-10-04,06:25:00,DRY,8.60,10.95,55.5,773.00,0.9
2020-10-04,06:30:00,DRY,7.43,11.03,59.3,773.00,0.9
2020-10-04,06:35:00,DRY,7.25,11.45,57.5,773.50,0.8
2020-10-04,06:40:00,DRY,8.07,11.40,59.7,774.00,1.2
2020-10-04,06:45:00,DRY,6.70,11.05,62.0,774.00,1.5
2020-10-04,06:50:00,DRY,8.03,10.90,62.7,774.00,1.4
2020-10-04,06:55:00,DRY,6.60,11.00,63.0,774.00,2.6
2020-10-04,07:00:00,DRY,7.27,11.07,63.0,774.00,4.1
2020-10-04,07:05:00,DRY,7.00,11.20,61.5,774.00,6.5
2020-10-04,07:10:00,DRY,5.57,11.13,61.0,774.00,8.9
2020-10-04,07:15:00,DRY,8.10,11.05,61.0,774.00,12.7
2020-10-04,07:20:00,DRY,5.93,11.20,60.7,774.00,15.2
2020-10-04,07:25:00,DRY,5.50,11.20,60.0,774.00,17.9
2020-10-04,07:30:00,DRY,5.47,11.00,60.3,774.00,19.7
2020-10-04,07:35:00,DRY,5.70,10.50,64.5,774.00,21.5
2020-10-04,07:40:00,DRY,6.57,10.50,64.3,774.00,23.5
2020-10-04,07:45:00,DRY,5.60,10.75,63.5,774.00,25.0
2020-10-04,07:50:00,DRY,5.80,10.67,64.0,774.00,26.7
2020-10-04,07:55:00,DRY,7.65,10.60,64.5,774.00,28.6
2020-10-04,08:00:00,DRY,5.40,10.43,64.3,774.00,30.0
2020-10-04,08:05:00,DRY,7.55,10.50,63.5,774.00,39.4
2020-10-04,08:10:00,DRY,7.93,10.63,63.3,774.00,261.1
2020-10-04,08:15:00,DRY,6.40,10.85,62.0,774.00,299.0
2020-10-04,08:20:00,DRY,6.10,10.90,60.7,774.00,322.2
2020-10-04,08:25:00,DRY,6.85,11.00,60.0,774.00,344.5
2020-10-04,08:30:00,DRY,5.40,11.33,59.3,774.00,367.9
2020-10-04,08:35:00,DRY,5.45,11.25,58.5,774.00,390.4
2020-10-04,08:40:00,DRY,4.65,11.20,61.5,774.50,416.6
2020-10-04,08:45:00,DRY,6.80,11.00,61.5,774.50,434.1
2020-10-04,08:50:00,DRY,6.30,11.03,62.3,774.00,455.7
2020-10-04,08:55:00,DRY,6.45,10.65,67.0,774.50,476.2
2020-10-04,09:00:00,DRY,5.97,10.57,69.0,774.33,497.1
2020-10-04,09:05:00,DRY,4.65,10.60,69.5,775.00,518.8
2020-10-04,09:10:00,DRY,6.70,10.93,68.0,775.00,539.0
2020-10-04,09:15:00,DRY,4.95,10.85,70.0,775.00,559.4
2020-10-04,09:20:00,DRY,5.00,10.80,73.0,775.00,579.1
2020-10-04,09:25:00,DRY,3.50,10.55,73.0,775.00,599.2
2020-10-04,09:30:00,DRY,4.63,10.67,72.3,775.00,619.5
2020-10-04,09:35:00,DRY,5.10,10.70,71.5,775.00,639.1
2020-10-04,09:40:00,DRY,4.10,10.90,70.0,775.00,657.3
2020-10-04,09:45:00,DRY,6.10,10.75,70.5,775.00,674.5
2020-10-04,09:50:00,DRY,4.87,11.03,70.0,775.00,693.0
2020-10-04,09:55:00,DRY,4.20,10.95,70.5,775.00,710.9
2020-10-04,10:00:00,DRY,4.30,11.10,70.0,775.00,727.7
2020-10-04,10:05:00,DRY,3.95,11.05,71.5,775.00,744.9
2020-10-04,10:10:00,DRY,4.97,11.37,70.7,775.00,760.1
2020-10-04,10:15:00,DRY,5.30,11.50,70.5,775.00,776.1
2020-10-04,10:20:00,DRY,5.73,11.70,69.0,775.00,792.4
2020-10-04,10:25:00,DRY,7.40,12.30,63.5,775.00,808.0
2020-10-04,10:30:00,DRY,5.77,12.00,67.3,775.00,821.8
2020-10-04,10:35:00,DRY,4.65,12.05,64.5,775.00,835.8
2020-10-04,10:40:00,DRY,4.93,12.70,59.3,775.00,850.1
2020-10-04,10:45:00,DRY,4.80,12.80,58.0,775.00,863.0
2020-10-04,10:50:00,DRY,4.83,12.90,56.3,775.00,876.3
2020-10-04,10:55:00,DRY,5.25,12.95,59.0,775.00,888.6
2020-10-04,11:00:00,DRY,5.03,13.13,60.7,775.00,900.5
2020-10-04,11:05:00,DRY,5.50,12.75,64.5,775.00,912.6
2020-10-04,11:10:00,DRY,4.87,12.90,66.0,775.00,924.0
2020-10-04,11:15:00,DRY,4.55,13.15,63.5,775.00,934.5
2020-10-04,11:20:00,DRY,6.07,13.10,65.3,775.00,945.3
2020-10-04,11:25:00,DRY,5.45,12.90,67.0,775.00,955.9
2020-10-04,11:30:00,DRY,5.33,13.07,63.3,775.00,965.0
2020-10-04,11:35:00,DRY,6.05,13.10,62.0,775.00,973.8
2020-10-04,11:40:00,DRY,4.63,13.10,63.3,775.00,980.9
2020-10-04,11:45:00,DRY,4.80,13.35,63.0,775.00,989.0
2020-10-04,11:50:00,DRY,4.87,13.47,60.0,775.00,996.7
2020-10-04,11:55:00,DRY,4.75,13.40,61.5,775.00,1003.1
2020-10-04,12:00:00,DRY,5.03,13.33,62.0,775.00,1010.0
2020-10-04,12:05:00,DRY,4.40,13.30,63.5,775.00,1015.9
2020-10-04,12:10:00,DRY,5.47,13.33,66.0,775.00,1022.4
2020-10-04,12:15:00,DRY,5.15,13.55,66.5,775.00,1028.0
2020-10-04,12:20:00,DRY,5.00,13.27,65.3,775.00,1032.2
2020-10-04,12:25:00,DRY,3.40,13.35,68.0,775.00,1035.9
2020-10-04,12:30:00,DRY,5.30,13.27,65.3,775.00,1038.0
2020-10-04,12:35:00,DRY,7.05,13.30,63.5,775.00,1041.5
2020-10-04,12:40:00,DRY,5.13,13.13,66.7,775.00,1042.9
2020-10-04,12:45:00,DRY,4.95,13.30,71.0,775.00,1043.3
2020-10-04,12:50:00,DRY,4.37,13.47,68.7,775.00,1045.7
2020-10-04,12:55:00,DRY,8.10,13.60,64.0,775.00,1046.8
2020-10-04,13:00:00,DRY,4.27,13.50,66.3,775.00,1045.4
2020-10-04,13:05:00,DRY,5.60,13.55,67.5,775.00,1045.5
2020-10-04,13:10:00,DRY,6.00,13.40,67.7,775.00,1043.9
2020-10-04,13:15:00,DRY,4.30,13.40,70.0,775.00,1040.9
2020-10-04,13:20:00,DRY,5.47,13.43,68.7,775.00,1038.6
2020-10-04,13:25:00,DRY,5.15,13.40,66.5,775.00,1034.9
2020-10-04,13:30:00,DRY,3.80,13.40,67.0,775.00,1033.9
2020-10-04,13:35:00,DRY,4.80,13.80,63.0,775.00,1027.9
2020-10-04,13:40:00,DRY,5.73,13.43,64.0,774.67,1024.9
2020-10-04,13:45:00,DRY,5.15,13.55,67.0,775.00,1019.8
2020-10-04,13:50:00,DRY,4.15,13.80,66.0,774.50,1015.0
2020-10-04,13:55:00,DRY,3.95,13.55,68.0,775.00,1009.7
2020-10-04,14:00:00,DRY,4.63,13.50,68.0,774.67,1002.7
2020-10-04,14:05:00,DRY,4.90,13.50,68.5,775.00,994.9
2020-10-04,14:10:00,DRY,5.97,13.53,64.7,774.67,988.4
2020-10-04,14:15:00,DRY,3.85,13.95,65.0,774.50,981.2
2020-10-04,14:20:00,DRY,6.97,13.50,64.0,774.00,973.2
2020-10-04,14:25:00,DRY,4.20,13.25,67.5,774.00,965.3
2020-10-04,14:30:00,DRY,5.70,13.47,64.3,774.00,957.2
2020-10-04,14:35:00,DRY,6.40,13.60,65.5,774.00,945.8
2020-10-04,14:40:00,DRY,5.00,13.33,66.0,774.33,936.3
2020-10-04,14:45:00,DRY,6.30,13.30,65.5,774.50,927.2
2020-10-04,14:50:00,DRY,4.73,13.50,63.3,774.33,917.3
2020-10-04,14:55:00,DRY,6.00,13.15,66.5,774.00,905.2
2020-10-04,15:00:00,DRY,4.13,13.40,63.7,774.00,892.9
2020-10-04,15:05:00,DRY,5.25,13.45,62.0,774.00,882.8
2020-10-04,15:10:00,DRY,5.53,13.50,60.3,774.00,868.8
2020-10-04,15:15:00,DRY,4.00,13.55,62.5,774.00,855.4
2020-10-04,15:20:00,DRY,5.20,13.30,62.7,774.33,841.5
2020-10-04,15:25:00,DRY,5.25,13.30,63.5,774.00,826.8
2020-10-04,15:30:00,DRY,5.87,13.07,64.0,774.00,811.0
2020-10-04,15:35:00,DRY,5.55,13.30,64.0,774.50,795.8
2020-10-04,15:40:00,DRY,4.83,12.90,64.0,774.33,779.4
2020-10-04,15:45:00,DRY,4.70,13.15,62.5,774.50,763.8
2020-10-04,15:50:00,DRY,5.97,12.73,63.7,774.33,747.2
2020-10-04,15:55:00,DRY,5.80,12.60,65.5,774.50,730.3
2020-10-04,16:00:00,DRY,5.60,12.83,64.0,774.33,712.3
2020-10-04,16:05:00,DRY,4.85,12.85,65.5,774.50,694.8
2020-10-04,16:10:00,DRY,6.37,12.90,64.7,774.00,676.7
2020-10-04,16:15:00,DRY,5.75,12.70,67.0,774.00,657.8
2020-10-04,16:20:00,DRY,6.67,12.53,66.7,774.00,638.9
2020-10-04,16:25:00,DRY,6.05,12.55,66.5,774.00,619.2
2020-10-04,16:30:00,DRY,5.17,12.60,65.3,774.00,599.8
2020-10-04,16:35:00,DRY,5.40,12.60,64.5,774.00,579.0
2020-10-04,16:40:00,DRY,5.63,12.23,68.3,774.00,559.9
2020-10-04,16:45:00,DRY,5.80,12.35,67.0,774.00,539.1
2020-10-04,16:50:00,DRY,5.77,11.97,67.7,774.00,518.0
2020-10-04,16:55:00,DRY,5.25,11.90,68.5,774.00,497.0
2020-10-04,17:00:00,DRY,6.07,11.90,68.0,774.00,475.4
2020-10-04,17:05:00,DRY,5.65,11.80,70.0,774.00,454.0
2020-10-04,17:10:00,DRY,6.53,11.73,69.3,774.00,432.0
2020-10-04,17:15:00,DRY,4.60,11.75,68.5,774.00,410.4
2020-10-04,17:20:00,DRY,7.67,11.83,68.0,774.00,388.6
2020-10-04,17:25:00,DRY,4.30,11.75,69.0,774.00,365.9
2020-10-04,17:30:00,DRY,8.10,11.77,68.0,774.00,342.9
2020-10-04,17:35:00,DRY,8.40,11.85,67.0,774.00,320.6
2020-10-04,17:40:00,DRY,7.23,11.63,67.0,774.00,298.1
2020-10-04,17:45:00,DRY,7.65,11.55,67.5,774.00,275.9
2020-10-04,17:50:00,DRY,9.53,11.47,68.0,774.00,253.2
2020-10-04,17:55:00,DRY,7.85,11.35,67.0,774.00,231.3
2020-10-04,18:00:00,DRY,9.43,11.53,65.3,774.00,208.3
2020-10-04,18:05:00,DRY,8.95,11.50,66.5,774.00,187.0
2020-10-04,18:10:00,DRY,6.40,11.47,64.7,774.00,166.1
2020-10-04,18:15:00,DRY,7.95,11.40,65.0,774.00,104.6
2020-10-04,18:20:00,DRY,7.37,11.37,65.3,774.00,24.5
2020-10-04,18:25:00,DRY,7.00,11.35,65.5,774.00,22.8
2020-10-04,18:30:00,DRY,7.60,11.50,65.0,774.00,20.6
2020-10-04,18:35:00,DRY,6.35,11.45,66.0,774.00,17.8
2020-10-04,18:40:00,DRY,6.80,11.37,66.0,774.00,15.8
2020-10-04,18:45:00,DRY,7.40,11.30,66.5,774.00,12.8
2020-10-04,18:50:00,DRY,7.83,11.13,68.0,774.00,10.1
2020-10-04,18:55:00,DRY,6.70,11.10,69.0,774.00,8.7
2020-10-04,19:00:00,DRY,8.50,11.07,69.0,774.00,4.6
2020-10-04,19:05:00,DRY,6.90,11.00,69.0,774.00,2.7
2020-10-04,19:10:00,DRY,8.07,11.00,68.7,774.00,1.7
2020-10-04,19:15:00,DRY,7.95,11.00,68.5,774.50,1.4
2020-10-04,19:20:00,DRY,7.53,10.97,69.0,774.67,1.5
2020-10-04,19:25:00,DRY,7.75,10.95,69.0,775.00,1.4
2020-10-04,19:30:00,DRY,7.00,10.80,70.7,775.00,1.4
2020-10-04,19:35:00,DRY,8.10,10.70,71.0,775.00,1.5
2020-10-04,19:40:00,DRY,8.70,10.70,70.3,775.00,1.2
2020-10-04,19:45:00,DRY,7.65,10.75,70.0,775.00,1.4
2020-10-04,19:50:00,DRY,6.80,10.63,71.0,775.00,1.2
2020-10-04,19:55:00,DRY,6.40,10.60,70.0,775.00,1.6
2020-10-04,20:00:00,DRY,5.50,10.63,68.0,775.00,0.9
2020-10-04,20:05:00,DRY,7.10,10.75,65.5,775.00,1.1
2020-10-04,20:10:00,DRY,7.40,10.87,64.0,775.00,1.3
2020-10-04,20:15:00,DRY,6.95,11.15,62.0,775.00,1.4
2020-10-04,20:20:00,DRY,5.43,11.23,59.7,775.00,1.3
2020-10-04,20:25:00,DRY,4.50,11.35,59.5,775.00,1.4
2020-10-04,20:30:00,DRY,6.63,11.33,59.3,775.00,1.3
2020-10-04,20:35:00,DRY,8.25,11.30,60.5,775.00,1.4
2020-10-04,20:40:00,DRY,6.87,11.20,61.3,775.00,1.2
2020-10-04,20:45:00,DRY,7.60,11.10,62.5,775.50,1.1
2020-10-04,20:50:00,DRY,7.03,11.13,62.7,775.00,1.3
2020-10-04,20:55:00,DRY,6.10,11.15,62.5,775.50,1.8
2020-10-04,21:00:00,DRY,7.03,11.17,62.0,775.67,1.3
2020-10-04,21:05:00,DRY,7.70,11.20,62.0,776.00,1.8
2020-10-04,21:10:00,DRY,6.80,11.37,59.7,776.00,1.8
2020-10-04,21:15:00,DRY,6.00,11.30,61.0,776.00,1.1
2020-10-04,21:20:00,DRY,6.67,11.20,62.3,776.00,1.3
2020-10-04,21:25:00,DRY,7.70,11.25,61.0,776.00,2.2
2020-10-04,21:30:00,DRY,5.83,11.20,61.7,776.00,1.2
2020-10-04,21:35:00,DRY,4.85,11.20,62.0,776.00,1.2
2020-10-04,21:40:00,DRY,5.00,11.13,62.7,776.00,1.3
2020-10-04,21:45:00,DRY,6.40,11.20,62.0,776.00,1.0
2020-10-04,21:50:00,DRY,4.40,11.33,60.7,776.00,1.2
2020-10-04,21:55:00,DRY,6.60,11.25,60.0,776.00,0.8
2020-10-04,22:00:00,DRY,3.70,11.30,60.0,776.00,0.7
2020-10-04,22:05:00,DRY,3.75,11.30,61.0,776.00,1.5
2020-10-04,22:10:00,DRY,4.23,11.37,60.7,776.00,1.4
2020-10-04,22:15:00,DRY,3.80,11.50,59.0,776.00,1.1
2020-10-04,22:20:00,DRY,4.63,11.73,57.7,776.00,1.2
2020-10-04,22:25:00,DRY,4.70,11.90,56.5,776.00,0.5
2020-10-04,22:30:00,DRY,5.13,12.03,56.0,776.00,1.4
2020-10-04,22:35:00,DRY,4.25,12.00,56.5,776.00,1.2
2020-10-04,22:40:00,DRY,5.93,11.87,57.3,776.00,1.4
2020-10-04,22:45:00,DRY,4.70,11.85,58.0,776.00,1.4
2020-10-04,22:50:00,DRY,5.07,11.90,56.7,776.00,1.2
2020-10-04,22:55:00,DRY,6.60,12.10,55.5,776.00,1.4
2020-10-04,23:00:00,DRY,6.23,12.03,56.3,776.00,2.3
2020-10-04,23:05:00,DRY,6.00,11.80,58.5,776.00,1.3
2020-10-04,23:10:00,DRY,6.17,11.97,56.3,776.00,2.2
2020-10-04,23:15:00,DRY,5.65,11.75,58.5,776.00,1.4
2020-10-04,23:20:00,DRY,5.50,11.90,57.7,776.00,1.4
2020-10-04,23:25:00,DRY,6.25,12.10,56.0,776.00,1.6
2020-10-04,23:30:00,DRY,5.07,12.20,54.3,776.00,1.3
2020-10-04,23:35:00,DRY,6.35,12.20,55.0,776.00,1.4
2020-10-04,23:40:00,DRY,4.43,12.00,56.3,776.00,1.3
2020-10-04,23:45:00,DRY,7.80,12.25,53.5,776.00,1.3
2020-10-04,23:50:00,DRY,6.40,12.80,51.0,775.67,1.5
2020-10-04,23:55:00,DRY,6.40,12.50,51.5,776.00,1.2
2020-10-05,00:00:00,DRY,6.30,12.47,52.3,775.33,1.5
2020-10-05,00:05:00,DRY,5.90,12.35,53.0,775.00,1.6
2020-10-05,00:10:00,DRY,5.63,12.60,52.0,775.00,1.3
2020-10-05,00:15:00,DRY,5.75,12.45,52.5,775.00,1.6
2020-10-05,00:20:00,DRY,4.53,12.57,52.3,775.33,1.6
2020-10-05,00:25:00,DRY,5.90,12.50,53.0,775.00,1.1
2020-10-05,00:30:00,DRY,4.33,12.53,53.3,775.00,1.3
2020-10-05,00:35:00,DRY,5.40,12.75,52.0,776.00,1.1
2020-10-05,00:40:00,DRY,5.57,12.70,51.3,775.33,1.5
2020-10-05,00:45:00,DRY,4.35,12.85,51.0,775.00,1.9
2020-10-05,00:50:00,DRY,3.27,12.80,51.7,775.00,1.0
2020-10-05,00:55:00,DRY,3.40,12.70,51.5,775.00,1.2
2020-10-05,01:00:00,DRY,3.93,12.53,52.7,775.33,1.1
2020-10-05,01:05:00,DRY,3.25,12.70,53.0,775.00,0.8
2020-10-05,01:10:00,DRY,3.53,12.43,53.7,775.00,1.1
2020-10-05,01:15:00,DRY,4.50,12.35,54.5,775.00,1.1
2020-10-05,01:20:00,DRY,5.43,12.33,55.0,775.00,1.3
2020-10-05,01:25:00,DRY,3.70,12.35,55.0,775.00,0.8
2020-10-05,01:30:00,DRY,4.87,12.33,56.0,775.00,1.3
2020-10-05,01:35:00,DRY,4.65,12.45,53.0,775.00,0.9
2020-10-05,01:40:00,DRY,4.50,12.53,50.0,775.00,1.2
2020-10-05,01:45:00,DRY,5.25,12.60,44.0,775.00,1.3
2020-10-05,01:50:00,DRY,5.43,12.63,41.3,775.00,1.1
2020-10-05,01:55:00,DRY,5.80,12.75,37.0,775.00,1.2
2020-10-05,02:00:00,DRY,7.03,12.83,32.3,775.00,1.4
2020-10-05,02:05:00,DRY,4.70,13.10,29.0,775.00,1.1
2020-10-05,02:10:00,DRY,4.13,12.80,30.3,775.00,1.6
2020-10-05,02:15:00,DRY,5.60,12.50,33.0,775.00,1.2
2020-10-05,02:20:00,DRY,5.77,12.33,35.7,775.00,1.4
2020-10-05,02:25:00,DRY,4.75,12.55,34.5,775.00,1.4
2020-10-05,02:30:00,DRY,4.70,12.57,35.3,775.00,1.1
2020-10-05,02:35:00,DRY,3.45,12.55,36.5,775.00,0.9
2020-10-05,02:40:00,DRY,4.77,12.40,38.3,775.00,1.4
2020-10-05,02:45:00,DRY,4.95,12.60,39.0,775.00,1.4
2020-10-05,02:50:00,DRY,5.60,12.30,40.0,775.00,1.5
2020-10-05,02:55:00,DRY,5.25,12.25,41.0,775.00,1.6
2020-10-05,03:00:00,DRY,5.20,12.43,39.3,775.00,1.2
2020-10-05,03:05:00,DRY,4.45,12.50,39.0,775.00,1.8
2020-10-05,03:10:00,DRY,5.13,12.43,40.0,775.00,1.3
2020-10-05,03:15:00,DRY,5.00,12.35,41.0,775.00,1.4
2020-10-05,03:20:00,DRY,4.63,12.40,41.3,775.00,1.5
2020-10-05,03:25:00,DRY,5.15,12.55,40.0,775.00,1.3
2020-10-05,03:30:00,DRY,4.70,12.57,39.0,775.00,1.1
2020-10-05,03:35:00,DRY,3.85,12.35,41.5,775.00,1.1
2020-10-05,03:40:00,DRY,4.53,12.30,41.7,775.00,1.5
2020-10-05,03:45:00,DRY,5.75,12.40,41.0,775.00,1.1
2020-10-05,03:50:00,DRY,5.93,12.37,40.3,775.00,1.6
2020-10-05,03:55:00,DRY,3.95,12.45,40.0,775.00,0.8
2020-10-05,04:00:00,DRY,4.50,12.47,39.3,775.00,1.2
2020-10-05,04:05:00,DRY,5.75,12.30,42.0,775.00,1.6
2020-10-05,04:10:00,DRY,3.83,12.40,40.0,775.00,1.0
2020-10-05,04:15:00,DRY,4.05,12.35,40.5,775.00,1.1
2020-10-05,04:20:00,DRY,5.33,12.30,40.0,775.00,1.4
2020-10-05,04:25:00,DRY,4.85,12.45,41.0,775.00,1.9
2020-10-05,04:30:00,DRY,3.07,12.17,41.7,775.00,1.3
2020-10-05,04:35:00,DRY,3.45,12.10,42.5,775.00,1.1
2020-10-05,04:40:00,DRY,6.13,12.13,40.3,775.00,1.4
2020-10-05,04:45:00,DRY,6.20,12.25,36.5,775.00,1.2
2020-10-05,04:50:00,DRY,5.23,12.10,37.3,775.00,1.2
2020-10-05,04:55:00,DRY,5.25,12.30,35.5,775.00,1.2
2020-10-05,05:00:00,DRY,3.57,12.40,30.7,775.00,1.4
2020-10-05,05:05:00,DRY,4.40,12.45,24.5,775.00,1.5
2020-10-05,05:10:00,DRY,4.47,12.50,19.3,775.00,1.3
2020-10-05,05:15:00,DRY,3.90,12.55,16.5,775.00,1.4
2020-10-05,05:20:00,DRY,5.40,12.57,15.7,775.00,1.1
2020-10-05,05:25:00,DRY,4.35,12.80,9.5,775.00,0.8
2020-10-05,05:30:00,DRY,3.57,12.77,17.0,775.00,1.0
2020-10-05,05:35:00,DRY,4.50,12.70,27.0,775.00,1.1
2020-10-05,05:40:00,DRY,4.43,12.60,33.0,775.00,1.7
2020-10-05,05:45:00,DRY,4.55,12.60,38.0,775.00,1.2
2020-10-05,05:50:00,DRY,3.50,12.60,38.0,775.00,1.2
2020-10-05,05:55:00,DRY,3.35,12.50,37.0,775.00,1.6
2020-10-05,06:00:00,DRY,5.03,12.53,38.7,775.00,1.2
2020-10-05,06:05:00,DRY,4.85,12.60,36.5,775.00,1.0
2020-10-05,06:10:00,DRY,3.90,12.63,39.0,775.00,1.0
2020-10-05,06:15:00,DRY,4.90,12.60,38.0,775.00,1.1
2020-10-05,06:20:00,DRY,4.40,12.67,36.0,775.00,1.3
2020-10-05,06:25:00,DRY,5.70,12.85,28.0,775.00,1.3
2020-10-05,06:30:00,DRY,5.20,12.80,23.3,775.00,1.9
2020-10-05,06:35:00,DRY,3.05,13.00,22.5,775.00,2.5
2020-10-05,06:40:00,DRY,6.20,12.93,13.7,775.00,1.3
2020-10-05,06:45:00,DRY,6.70,13.10,12.0,775.00,1.3
2020-10-05,06:50:00,DRY,4.47,13.07,13.0,775.00,1.4
2020-10-05,06:55:00,DRY,6.00,13.10,21.0,775.00,2.4
2020-10-05,07:00:00,DRY,5.80,13.17,20.0,775.00,4.0
2020-10-05,07:05:00,DRY,6.25,13.10,17.5,775.00,6.5
2020-10-05,07:10:00,DRY,4.97,13.00,16.7,775.00,8.8
2020-10-05,07:15:00,DRY,4.40,13.00,15.0,775.00,11.6
2020-10-05,07:20:00,DRY,3.40,13.03,17.7,775.00,13.7
2020-10-05,07:25:00,DRY,4.25,13.05,21.5,775.00,15.9
2020-10-05,07:30:00,DRY,4.17,13.03,22.7,775.00,18.2
2020-10-05,07:35:00,DRY,4.00,13.10,24.5,775.00,19.4
2020-10-05,07:40:00,DRY,5.40,12.90,24.0,775.00,21.6
2020-10-05,07:45:00,DRY,3.30,12.95,18.5,775.00,23.2
2020-10-05,07:50:00,DRY,3.77,12.93,19.7,775.00,24.5
2020-10-05,07:55:00,DRY,4.25,13.00,20.0,775.00,25.7
2020-10-05,08:00:00,DRY,4.73,13.13,24.7,775.00,27.7
2020-10-05,08:05:00,DRY,4.10,13.00,22.0,775.50,28.8
2020-10-05,08:10:00,DRY,4.23,13.03,23.7,776.00,208.0
2020-10-05,08:15:00,DRY,4.75,13.35,28.0,776.00,296.4
2020-10-05,08:20:00,DRY,3.97,13.40,31.3,776.00,319.8
2020-10-05,08:25:00,DRY,3.40,13.25,30.5,776.00,342.0
2020-10-05,08:30:00,DRY,4.60,13.37,33.0,775.67,364.4
2020-10-05,08:35:00,DRY,5.00,13.30,34.0,776.00,386.8
2020-10-05,08:40:00,DRY,3.07,13.37,36.0,776.00,409.1
2020-10-05,08:45:00,DRY,3.45,13.95,31.5,776.00,430.4
2020-10-05,08:50:00,DRY,4.07,13.93,33.3,776.00,451.9
2020-10-05,08:55:00,DRY,4.35,14.10,34.5,776.00,473.8
2020-10-05,09:00:00,DRY,4.20,14.13,34.7,776.00,494.3
2020-10-05,09:05:00,DRY,3.15,14.45,35.0,776.00,515.9
2020-10-05,09:10:00,DRY,2.90,14.23,37.7,776.00,536.0
2020-10-05,09:15:00,DRY,2.70,14.40,36.0,776.00,556.6
2020-10-05,09:20:00,DRY,1.33,14.60,40.3,776.00,578.8
2020-10-05,09:25:00,DRY,3.25,14.25,42.5,776.00,597.2
2020-10-05,09:30:00,DRY,2.17,14.37,40.0,776.00,616.8
2020-10-05,09:35:00,DRY,1.20,15.15,35.5,776.00,636.2
2020-10-05,09:40:00,DRY,2.77,15.73,32.3,776.00,655.1
2020-10-05,09:45:00,DRY,1.60,15.50,38.5,776.00,672.9